Time,TemperatureF,DewpointF,PressureIn,WindDirection,WindDirectionDegrees,WindSpeedMPH,WindSpeedGustMPH,Humidity,HourlyPrecipIn,Conditions,Clouds,dailyrainin,SoftwareType,DateUTC
2013-12-24 08:22:00,30.0,27.0,30.34,NW,312,0.0,0.0,88,0.00,,,0.00,,2013-12-24 13:22:00,
2013-12-24 08:42:00,32.0,29.0,30.34,NW,312,0.0,0.0,88,0.00,,,0.00,,2013-12-24 13:42:00,
2013-12-24 08:52:00,33.0,30.0,30.34,NW,312,0.0,0.0,88,0.00,,,0.00,,2013-12-24 13:52:00,
2013-12-24 09:11:00,34.0,31.0,30.34,NW,311,0.0,0.0,88,0.00,,,0.00,,2013-12-24 14:11:00,
2013-12-24 09:22:00,34.0,31.0,30.35,NW,308,0.0,1.0,87,0.00,,,0.00,,2013-12-24 14:22:00,
2013-12-24 09:42:00,34.0,30.0,30.35,WSW,246,0.0,2.0,86,0.00,,,0.00,,2013-12-24 14:42:00,
2013-12-24 09:52:00,34.0,30.0,30.36,WNW,301,0.0,2.0,86,0.00,,,0.00,,2013-12-24 14:52:00,
2013-12-24 10:22:00,37.0,33.0,30.37,NNW,342,0.0,1.0,85,0.00,,,0.00,,2013-12-24 15:22:00,
2013-12-24 10:54:00,38.0,33.0,30.36,NW,312,2.0,8.0,81,0.00,,,0.00,,2013-12-24 15:54:00,
2013-12-24 11:23:00,38.0,32.0,30.36,NNW,344,3.0,16.0,78,0.00,,,0.00,,2013-12-24 16:23:00,
2013-12-24 11:43:00,38.0,31.0,30.35,WNW,287,5.0,13.0,77,0.00,,,0.00,,2013-12-24 16:43:00,
2013-12-24 11:53:00,38.0,30.0,30.35,North,0,6.0,18.0,74,0.00,,,0.00,,2013-12-24 16:53:00,
2013-12-24 12:22:00,39.0,31.0,30.35,WNW,301,1.0,7.0,74,0.00,,,0.00,,2013-12-24 17:22:00,
2013-12-24 12:42:00,39.0,31.0,30.35,North,0,1.0,7.0,73,0.00,,,0.00,,2013-12-24 17:42:00,
2013-12-24 13:22:00,40.0,31.0,30.35,NW,323,0.0,7.0,70,0.00,,,0.00,,2013-12-24 18:22:00,
2013-12-24 13:52:00,40.0,31.0,30.34,NW,323,1.0,10.0,69,0.00,,,0.00,,2013-12-24 18:52:00,
2013-12-24 14:12:00,40.0,30.0,30.33,NW,309,2.0,10.0,68,0.00,,,0.00,,2013-12-24 19:12:00,
2013-12-24 14:22:00,40.0,30.0,30.34,NNW,342,0.0,4.0,68,0.00,,,0.00,,2013-12-24 19:22:00,
2013-12-24 14:42:00,40.0,30.0,30.34,West,272,0.0,0.0,67,0.00,,,0.00,,2013-12-24 19:42:00,
2013-12-24 15:12:00,39.0,28.0,30.34,NNW,344,0.0,11.0,65,0.00,,,0.00,,2013-12-24 20:12:00,
2013-12-24 21:42:00,30.0,20.0,30.39,WNW,298,0.0,0.0,66,0.00,,,0.00,,2013-12-25 02:42:00,
2013-12-24 21:53:00,30.0,20.0,30.39,WNW,298,0.0,0.0,66,0.00,,,0.00,,2013-12-25 02:53:00,
2013-12-24 22:22:00,29.0,19.0,30.39,WNW,298,0.0,0.0,66,0.00,,,0.00,,2013-12-25 03:22:00,
2013-12-24 22:43:00,29.0,20.0,30.39,WNW,298,0.0,0.0,68,0.00,,,0.00,,2013-12-25 03:43:00,
2013-12-24 22:53:00,29.0,20.0,30.39,WNW,298,0.0,0.0,68,0.00,,,0.00,,2013-12-25 03:53:00,
2013-12-24 23:23:00,28.0,19.0,30.40,WNW,298,0.0,0.0,69,0.00,,,0.00,,2013-12-25 04:23:00,
2013-12-24 23:43:00,28.0,19.0,30.39,WNW,298,0.0,0.0,69,0.00,,,0.00,,2013-12-25 04:43:00,
2013-12-24 23:53:00,28.0,19.0,30.39,WNW,298,0.0,0.0,69,0.00,,,0.00,,2013-12-25 04:53:00,